This is the latest recevied weather packets stored in our database for station/object KB2M. If no packets are shown the sender has not sent any weather packets the latest 10 day(s).
| Time | Temp. | Humidity | Pressure | Rain* | Wind** | Luminosity | Snow |
|---|---|---|---|---|---|---|---|
| 1777932470 | 23.33° C | 55% | 1017.6 hPa | 0 mm | - | - | - |
| 1777931840 | 23.33° C | 56% | 1017.6 hPa | 0 mm | - | - | - |
| 1777931210 | 23.33° C | 56% | 1017.9 hPa | 0 mm | - | - | - |
| 1777930609 | 23.33° C | 55% | 1017.6 hPa | 0 mm | - | - | - |
| 1777930009 | 23.89° C | 55% | 1017.6 hPa | 0 mm | - | - | - |
| 1777929408 | 23.33° C | 55% | 1017.6 hPa | 0 mm | - | - | - |
| 1777928807 | 23.33° C | 56% | 1017.9 hPa | 0 mm | - | - | - |
| 1777928206 | 23.89° C | 56% | 1017.9 hPa | 0 mm | - | - | - |
| 1777927606 | 23.89° C | 56% | 1017.9 hPa | 0 mm | - | - | - |
| 1777927005 | 24.44° C | 55% | 1017.9 hPa | 0 mm | - | - | - |
| 1777926404 | 23.89° C | 56% | 1017.9 hPa | 0 mm | - | - | - |
| 1777925803 | 23.89° C | 56% | 1017.9 hPa | 0 mm | - | - | - |
| 1777925203 | 24.44° C | 56% | 1017.9 hPa | 0 mm | - | - | - |
| 1777924602 | 24.44° C | 56% | 1017.9 hPa | 0 mm | - | - | - |
| 1777924001 | 24.44° C | 55% | 1018.2 hPa | 0 mm | - | - | - |
| 1777923401 | 23.89° C | 57% | 1018.2 hPa | 0 mm | - | - | - |
| 1777922800 | 24.44° C | 57% | 1018.2 hPa | 0 mm | - | - | - |
| 1777922200 | 23.89° C | 56% | 1018.2 hPa | 0 mm | - | - | - |
| 1777921599 | 23.89° C | 56% | 1018.9 hPa | 0 mm | - | - | - |
| 1777920999 | 24.44° C | 57% | 1018.9 hPa | 0 mm | - | - | - |
| 1777920398 | 23.33° C | 57% | 1018.9 hPa | 0 mm | - | - | - |
| 1777919798 | 23.33° C | 57% | 1019.3 hPa | 0 mm | - | - | - |
| 1777919197 | 23.33° C | 57% | 1019.3 hPa | 0 mm | - | - | - |
| 1777918597 | 23.33° C | 58% | 1019.3 hPa | 0 mm | - | - | - |
| 1777917997 | 23.33° C | 57% | 1019.3 hPa | 0 mm | - | - | - |
* Rain latest hour (hover to see other rain measurements)
** Current wind speed in m/s (hover to see current wind gust speed)